When you browse on this site, cookies collect data to enhance your experience and personalize the content and advertising you see.
Visit our Privacy Policy to learn more. By continuing to use the site, you agree to this use of cookies and data.
  • In Switzerland
  • List of Countries
  • For 7 days
  • Water Temperature
  • Weather Map
  • Weather Widgets
  • user-avatar
    Login

    Hourly Weather Eisenstadt

    Today, 21 August, Wednesday

    Time Temperature Precipitation Wind Pressure Humidity
    00:00 +21°C° 0 mm 2 mps 725 mmHg 79%
    01:00 +21°C° 0 mm 3 mps 725 mmHg 81%
    02:00 +20°C° 0.2 mm 4 mps 726 mmHg 82%
    03:00 +19°C° 0.2 mm 5 mps 726 mmHg 83%
    04:00 +17°C° 0.2 mm 6 mps 726 mmHg 84%
    05:00 +17°C° 0.1 mm 6 mps 727 mmHg 82%
    06:00 +17°C° 0.1 mm 6 mps 728 mmHg 80%
    07:00 +17°C° 0.1 mm 7 mps 728 mmHg 78%
    08:00 +17°C° 0 mm 7 mps 729 mmHg 73%
    09:00 +18°C° 0 mm 7 mps 729 mmHg 67%
    10:00 +20°C° 0 mm 7 mps 729 mmHg 62%
    11:00 +21°C° 0 mm 6 mps 729 mmHg 61%
    12:00 +21°C° 0 mm 6 mps 729 mmHg 60%
    13:00 +21°C° 0 mm 6 mps 729 mmHg 59%
    14:00 +21°C° 0 mm 6 mps 729 mmHg 59%
    15:00 +22°C° 0 mm 6 mps 729 mmHg 58%
    16:00 +22°C° 0 mm 6 mps 729 mmHg 57%
    17:00 +21°C° 0 mm 5 mps 729 mmHg 62%
    18:00 +20°C° 0 mm 5 mps 729 mmHg 66%
    19:00 +18°C° 0 mm 4 mps 729 mmHg 71%
    20:00 +18°C° 0 mm 4 mps 729 mmHg 73%
    21:00 +17°C° 0 mm 4 mps 729 mmHg 75%
    22:00 +17°C° 0 mm 4 mps 729 mmHg 76%
    23:00 +15°C° 0 mm 4 mps 729 mmHg 78%

    Tomorrow, 22 August, Thursday

    Time Temperature Precipitation Wind Pressure Humidity
    00:00 +15°C° 0 mm 4 mps 729 mmHg 79%
    01:00 +15°C° 0 mm 4 mps 729 mmHg 81%
    02:00 +14°C° 0.1 mm 3 mps 729 mmHg 83%
    03:00 +14°C° 0.1 mm 3 mps 728 mmHg 84%
    04:00 +15°C° 0.1 mm 2 mps 728 mmHg 86%
    05:00 +15°C° 0.1 mm 2 mps 728 mmHg 84%
    06:00 +16°C° 0.1 mm 2 mps 728 mmHg 82%
    07:00 +17°C° 0.1 mm 2 mps 729 mmHg 80%
    08:00 +18°C° 0.1 mm 2 mps 729 mmHg 73%
    09:00 +20°C° 0.1 mm 2 mps 729 mmHg 66%
    10:00 +23°C° 0.1 mm 2 mps 729 mmHg 59%
    11:00 +24°C° 0.1 mm 2 mps 729 mmHg 57%
    12:00 +25°C° 0.1 mm 2 mps 729 mmHg 54%
    13:00 +26°C° 0.1 mm 2 mps 729 mmHg 52%
    14:00 +26°C° 0.1 mm 2 mps 728 mmHg 53%
    15:00 +25°C° 0.1 mm 2 mps 728 mmHg 54%
    16:00 +25°C° 0.1 mm 2 mps 728 mmHg 55%
    17:00 +24°C° 0 mm 1 mps 728 mmHg 61%
    18:00 +22°C° 0 mm 1 mps 728 mmHg 66%
    19:00 +19°C° 0 mm 0 mps 727 mmHg 72%
    20:00 +20°C° 0 mm 1 mps 728 mmHg 74%
    21:00 +20°C° 0 mm 1 mps 728 mmHg 75%
    22:00 +19°C° 0 mm 1 mps 728 mmHg 77%
    23:00 +19°C° 0 mm 1 mps 728 mmHg 79%

    Day after tomorrow, 23 August, Friday

    Time Temperature Precipitation Wind Pressure Humidity
    00:00 +18°C° 0 mm 1 mps 728 mmHg 82%
    01:00 +18°C° 0 mm 1 mps 728 mmHg 84%
    02:00 +18°C° 0 mm 1 mps 728 mmHg 85%
    03:00 +18°C° 0 mm 1 mps 728 mmHg 86%
    04:00 +16°C° 0 mm 1 mps 728 mmHg 87%
    05:00 +18°C° 0 mm 1 mps 728 mmHg 84%
    06:00 +19°C° 0 mm 1 mps 728 mmHg 81%
    07:00 +20°C° 0 mm 1 mps 728 mmHg 78%
    08:00 +22°C° 0 mm 1 mps 729 mmHg 73%
    09:00 +23°C° 0 mm 1 mps 729 mmHg 67%
    10:00 +25°C° 0 mm 1 mps 729 mmHg 62%
    11:00 +26°C° 0 mm 1 mps 729 mmHg 60%
    12:00 +27°C° 0 mm 2 mps 728 mmHg 58%
    13:00 +27°C° 0 mm 2 mps 728 mmHg 57%
    14:00 +27°C° 0 mm 2 mps 728 mmHg 57%
    15:00 +28°C° 0 mm 2 mps 727 mmHg 57%
    16:00 +28°C° 0 mm 2 mps 727 mmHg 57%
    17:00 +26°C° 0 mm 1 mps 727 mmHg 64%
    18:00 +25°C° 0 mm 1 mps 726 mmHg 70%
    19:00 +23°C° 0 mm 1 mps 726 mmHg 77%
    20:00 +22°C° 0 mm 1 mps 726 mmHg 79%
    21:00 +22°C° 0 mm 1 mps 726 mmHg 80%
    22:00 +21°C° 0 mm 1 mps 726 mmHg 82%
    23:00 +21°C° 0 mm 1 mps 726 mmHg 82%

    24 August, Saturday

    Time Temperature Precipitation Wind Pressure Humidity
    00:00 +21°C° 0 mm 1 mps 726 mmHg 82%
    01:00 +21°C° 0 mm 1 mps 726 mmHg 82%
    02:00 +21°C° 0 mm 1 mps 726 mmHg 82%
    03:00 +21°C° 0 mm 1 mps 726 mmHg 83%
    04:00 +20°C° 0 mm 1 mps 726 mmHg 83%
    05:00 +21°C° 0 mm 1 mps 726 mmHg 80%
    06:00 +22°C° 0 mm 1 mps 726 mmHg 77%
    07:00 +23°C° 0 mm 1 mps 726 mmHg 73%
    08:00 +25°C° 0 mm 1 mps 726 mmHg 66%
    09:00 +26°C° 0 mm 2 mps 726 mmHg 59%
    10:00 +28°C° 0 mm 2 mps 727 mmHg 53%
    11:00 +29°C° 0.1 mm 2 mps 726 mmHg 50%
    12:00 +29°C° 0.1 mm 2 mps 726 mmHg 48%
    13:00 +30°C° 0.1 mm 2 mps 726 mmHg 46%
    14:00 +30°C° 0.4 mm 2 mps 725 mmHg 47%
    15:00 +30°C° 0.4 mm 2 mps 725 mmHg 47%
    16:00 +30°C° 0.4 mm 2 mps 725 mmHg 48%
    17:00 +28°C° 0.1 mm 2 mps 724 mmHg 55%
    18:00 +26°C° 0.1 mm 1 mps 724 mmHg 62%
    19:00 +24°C° 0.1 mm 1 mps 724 mmHg 69%
    20:00 +23°C° 0.7 mm 1 mps 724 mmHg 73%
    21:00 +22°C° 0.7 mm 1 mps 724 mmHg 77%
    22:00 +21°C° 0.7 mm 1 mps 725 mmHg 81%
    23:00 +21°C° 0 mm 1 mps 724 mmHg 81%

    25 August, Sunday

    Time Temperature Precipitation Wind Pressure Humidity
    00:00 +21°C° 0 mm 1 mps 724 mmHg 80%
    01:00 +21°C° 0 mm 1 mps 724 mmHg 80%
    02:00 +20°C° 0 mm 1 mps 724 mmHg 80%
    03:00 +20°C° 0 mm 1 mps 724 mmHg 81%
    04:00 +18°C° 0 mm 0 mps 724 mmHg 81%
    05:00 +19°C° 0 mm 0 mps 724 mmHg 80%
    06:00 +20°C° 0 mm 0 mps 724 mmHg 78%
    07:00 +21°C° 0 mm 0 mps 724 mmHg 76%
    08:00 +24°C° 0.1 mm 1 mps 724 mmHg 70%
    09:00 +26°C° 0.1 mm 1 mps 725 mmHg 63%
    10:00 +28°C° 0.1 mm 2 mps 725 mmHg 57%
    11:00 +29°C° 0.2 mm 2 mps 725 mmHg 53%
    12:00 +30°C° 0.2 mm 2 mps 725 mmHg 49%
    13:00 +31°C° 0.2 mm 2 mps 724 mmHg 46%
    14:00 +31°C° 0.2 mm 2 mps 724 mmHg 45%
    15:00 +31°C° 0.2 mm 2 mps 724 mmHg 45%
    16:00 +31°C° 0.2 mm 2 mps 724 mmHg 45%
    17:00 +29°C° 0.1 mm 2 mps 723 mmHg 52%
    18:00 +27°C° 0.1 mm 2 mps 723 mmHg 59%
    19:00 +24°C° 0.1 mm 2 mps 723 mmHg 66%
    20:00 +24°C° 0.7 mm 2 mps 723 mmHg 69%
    21:00 +23°C° 0.7 mm 1 mps 723 mmHg 73%
    22:00 +22°C° 0.7 mm 1 mps 724 mmHg 77%
    23:00 +21°C° 0.5 mm 1 mps 724 mmHg 78%

    26 August, Monday

    Time Temperature Precipitation Wind Pressure Humidity
    00:00 +21°C° 0.5 mm 1 mps 723 mmHg 79%
    01:00 +21°C° 0.5 mm 1 mps 723 mmHg 80%
    02:00 +21°C° 0 mm 1 mps 723 mmHg 81%
    03:00 +21°C° 0 mm 1 mps 723 mmHg 81%
    04:00 +20°C° 0 mm 1 mps 723 mmHg 81%
    05:00 +21°C° 0.1 mm 1 mps 723 mmHg 79%
    06:00 +22°C° 0.1 mm 1 mps 724 mmHg 78%
    07:00 +23°C° 0.1 mm 1 mps 724 mmHg 76%
    08:00 +25°C° 0 mm 1 mps 724 mmHg 68%
    09:00 +27°C° 0 mm 1 mps 724 mmHg 60%
    10:00 +29°C° 0 mm 1 mps 725 mmHg 53%
    11:00 +30°C° 0.2 mm 1 mps 725 mmHg 50%
    12:00 +30°C° 0.2 mm 2 mps 724 mmHg 47%
    13:00 +31°C° 0.2 mm 2 mps 724 mmHg 45%
    14:00 +31°C° 0.1 mm 2 mps 724 mmHg 44%
    15:00 +31°C° 0.1 mm 1 mps 724 mmHg 44%
    16:00 +31°C° 0.1 mm 1 mps 724 mmHg 44%
    17:00 +29°C° 0 mm 1 mps 724 mmHg 50%
    18:00 +27°C° 0 mm 1 mps 724 mmHg 56%
    19:00 +25°C° 0 mm 1 mps 723 mmHg 61%
    20:00 +24°C° 0.2 mm 1 mps 724 mmHg 63%
    21:00 +24°C° 0.2 mm 1 mps 724 mmHg 66%
    22:00 +23°C° 0.2 mm 1 mps 724 mmHg 68%
    23:00 +21°C° 0.5 mm 2 mps 725 mmHg 71%
    Show more